Change the Weather History Date:

Tuesday, November 13, 2012

  Actual Average Record
Temperature  
Mean Temperature 50 °F -  
Max Temperature 64 °F - - ()
Min Temperature 37 °F - - ()
Degree Days  
Heating Degree Days 14    
Moisture  
Dew Point 43 °F    
Average Humidity 79    
Maximum Humidity 100    
Minimum Humidity 49    
Precipitation  
Precipitation 0.00 in - - ()
Sea Level Pressure  
Sea Level Pressure 30.16 in    
Wind  
Wind Speed 3 mph ()    
Max Wind Speed 14 mph    
Max Gust Speed -    
Visibility 5.0 miles    
Events      
T = Trace of Precipitation, MM = Missing Value Source: Averaged Metar Reports

Daily Weather History Graph

Daily Weather History Graph

Search for Another Location

Airport or City:

Trip Planner

Search our weather history database for the weather conditions in past years. The results will help you decide how hot, cold, wet, or windy it might be!

Date:

Astronomy

Nov. 13, 2012 Rise Set
Actual Time 6:39 AM EET 4:51 PM EET
Civil Twilight 6:11 AM EET 5:19 PM EET
Nautical Twilight 5:39 AM EET 5:50 PM EET
Astronomical Twilight 5:08 AM EET 6:21 PM EET
Moon 5:53 AM EET (11/13) 4:27 PM EET (11/13)
Length of Visible Light 11h 07m
Length of Day
10h 11m
Waning Crescent, 0% of the Moon is Illuminated
Nov 13
Waning Crescent
Nov 14
New
Nov 20
First Quarter
Nov 28
Full
Dec 6
Last Quarter

Hourly Weather History & Observations

Time (EET) Temp. Windchill Dew Point Humidity Pressure Visibility Wind Dir Wind Speed Gust Speed Precip Events Conditions
12:50 AM 39.2 °F - 37.4 °F 93% 30.21 in - Calm Calm - N/A   Clear
1:50 AM 39.2 °F - 37.4 °F 93% 30.21 in - Calm Calm - N/A   Clear
2:50 AM 41.0 °F - 39.2 °F 93% 30.21 in - Variable 2.3 mph - N/A   Clear
3:50 AM 44.6 °F 42.2 °F 41.0 °F 87% 30.18 in - ESE 4.6 mph - N/A   Clear
4:50 AM 39.2 °F - 39.2 °F 100% 30.18 in - WNW 2.3 mph - N/A   Clear
5:50 AM 41.0 °F - 39.2 °F 93% 30.18 in 5.0 mi Calm Calm - N/A   Unknown
6:50 AM 37.4 °F - 37.4 °F 100% 30.21 in - Calm Calm - N/A   Clear
7:50 AM 42.8 °F 41.1 °F 42.8 °F 100% 30.21 in - East 3.5 mph - N/A   Clear
8:50 AM 48.2 °F - 44.6 °F 87% 30.21 in - East 8.1 mph - N/A   Clear
9:50 AM 53.6 °F - 44.6 °F 72% 30.18 in - ESE 13.8 mph - N/A   Clear
10:50 AM 57.2 °F - 44.6 °F 63% 30.18 in - ESE 12.7 mph - N/A   Clear
11:50 AM 59.0 °F - 44.6 °F 59% 30.15 in - ESE 8.1 mph - N/A   Clear
12:50 PM 60.8 °F - 46.4 °F 59% 30.15 in - ESE 5.8 mph - N/A   Clear
1:50 PM 62.6 °F - 44.6 °F 52% 30.12 in - Variable 2.3 mph - N/A   Clear
2:50 PM 62.6 °F - 46.4 °F 55% 30.12 in - Variable 2.3 mph - N/A   Clear
3:50 PM 64.4 °F - 44.6 °F 49% 30.12 in - Calm Calm - N/A   Clear
4:50 PM 59.0 °F - 48.2 °F 67% 30.12 in - WNW 4.6 mph - N/A   Clear
5:50 PM 51.8 °F - 46.4 °F 82% 30.12 in - Variable 1.2 mph - N/A   Clear
6:50 PM 51.8 °F - 46.4 °F 82% 30.12 in - South 1.2 mph - N/A   Clear
7:50 PM 48.2 °F - 42.8 °F 82% 30.12 in - Variable 2.3 mph - N/A   Clear
8:50 PM 48.2 °F - 42.8 °F 82% 30.15 in - SSE 8.1 mph - N/A   Clear
9:50 PM 48.2 °F - 42.8 °F 82% 30.15 in - SSE 9.2 mph - N/A   Clear
10:50 PM 48.2 °F - 42.8 °F 82% 30.15 in - Calm Calm - N/A   Clear
11:50 PM 44.6 °F - 41.0 °F 87% 30.12 in - Calm Calm - N/A   Clear